TimeMDT,TemperatureF,Dew PointF,Humidity,Sea Level PressureIn,VisibilityMPH,Wind Direction,Wind SpeedMPH,Gust SpeedMPH,PrecipitationIn,Events,Conditions,WindDirDegrees,DateUTC
12:10 AM,23.0,17.6,80,30.42,10.0,Calm,Calm,-,N/A,,Clear,0,2013-10-05 06:10:00
12:30 AM,23.0,17.6,80,30.42,10.0,Calm,Calm,-,N/A,,Clear,0,2013-10-05 06:30:00
12:50 AM,19.4,15.8,86,30.41,10.0,Calm,Calm,-,N/A,,Clear,0,2013-10-05 06:50:00
1:10 AM,19.4,15.8,86,30.41,10.0,SW,3.5,-,N/A,,Clear,220,2013-10-05 07:10:00
1:30 AM,19.4,15.8,86,30.41,10.0,Calm,Calm,-,N/A,,Clear,0,2013-10-05 07:30:00
1:50 AM,19.4,15.8,86,30.41,10.0,Calm,Calm,-,N/A,,Clear,0,2013-10-05 07:50:00
2:10 AM,19.4,15.8,86,30.41,10.0,Calm,Calm,-,N/A,,Clear,0,2013-10-05 08:10:00
2:30 AM,17.6,15.8,93,30.42,10.0,Calm,Calm,-,N/A,,Clear,0,2013-10-05 08:30:00
2:50 AM,17.6,14.0,86,30.42,10.0,Calm,Calm,-,N/A,,Clear,0,2013-10-05 08:50:00
3:10 AM,17.6,14.0,86,30.43,10.0,Calm,Calm,-,N/A,,Clear,0,2013-10-05 09:10:00
3:30 AM,17.6,14.0,86,30.42,10.0,Calm,Calm,-,N/A,,Clear,0,2013-10-05 09:30:00
3:50 AM,17.6,14.0,86,30.42,10.0,Calm,Calm,-,N/A,,Mostly Cloudy,0,2013-10-05 09:50:00
4:10 AM,17.6,15.8,93,30.42,10.0,Calm,Calm,-,N/A,,Overcast,0,2013-10-05 10:10:00
4:30 AM,17.6,14.0,86,30.43,10.0,Calm,Calm,-,N/A,,Mostly Cloudy,0,2013-10-05 10:30:00
4:50 AM,15.8,14.0,93,30.43,10.0,Calm,Calm,-,N/A,,Scattered Clouds,0,2013-10-05 10:50:00
5:10 AM,15.8,12.2,86,30.45,10.0,Calm,Calm,-,N/A,,Scattered Clouds,0,2013-10-05 11:10:00
5:30 AM,15.8,14.0,93,30.44,10.0,Calm,Calm,-,N/A,,Mostly Cloudy,0,2013-10-05 11:30:00
5:50 AM,15.8,12.2,86,30.43,10.0,Calm,Calm,-,N/A,,Overcast,0,2013-10-05 11:50:00
6:10 AM,15.8,14.0,93,30.43,10.0,Calm,Calm,-,N/A,,Overcast,0,2013-10-05 12:10:00
6:30 AM,17.6,14.0,86,30.43,10.0,Calm,Calm,-,N/A,,Overcast,0,2013-10-05 12:30:00
6:50 AM,17.6,15.8,93,30.43,10.0,Calm,Calm,-,N/A,,Overcast,0,2013-10-05 12:50:00
7:10 AM,19.4,15.8,86,30.44,3.0,Calm,Calm,-,N/A,,Overcast,0,2013-10-05 13:10:00
7:30 AM,19.4,15.8,86,30.44,10.0,Calm,Calm,-,N/A,,Overcast,0,2013-10-05 13:30:00
7:50 AM,19.4,15.8,86,30.45,10.0,Calm,Calm,-,N/A,,Overcast,0,2013-10-05 13:50:00
8:10 AM,17.6,15.8,93,30.46,10.0,NE,3.5,-,N/A,,Overcast,40,2013-10-05 14:10:00
8:30 AM,17.6,15.8,93,30.46,10.0,Calm,Calm,-,N/A,,Overcast,0,2013-10-05 14:30:00
8:50 AM,19.4,15.8,86,30.46,10.0,Calm,Calm,-,N/A,,Overcast,0,2013-10-05 14:50:00
9:10 AM,21.2,17.6,86,30.47,10.0,NNW,3.5,-,N/A,,Overcast,340,2013-10-05 15:10:00
9:30 AM,21.2,17.6,86,30.47,10.0,ENE,3.5,-,N/A,,Overcast,60,2013-10-05 15:30:00
9:50 AM,23.0,17.6,80,30.48,10.0,Calm,Calm,-,N/A,,Overcast,0,2013-10-05 15:50:00
10:10 AM,23.0,17.6,80,30.48,10.0,Calm,Calm,-,N/A,,Overcast,0,2013-10-05 16:10:00
10:30 AM,23.0,19.4,86,30.48,10.0,NNE,4.6,-,N/A,,Overcast,30,2013-10-05 16:30:00
10:50 AM,23.0,19.4,86,30.48,10.0,Calm,Calm,-,N/A,,Overcast,0,2013-10-05 16:50:00
11:10 AM,24.8,19.4,80,30.47,10.0,Calm,Calm,-,N/A,,Overcast,0,2013-10-05 17:10:00
11:30 AM,26.6,23.0,86,30.48,10.0,Calm,Calm,-,N/A,,Mostly Cloudy,0,2013-10-05 17:30:00
11:50 AM,28.4,24.8,86,30.47,10.0,ENE,4.6,-,N/A,,Mostly Cloudy,60,2013-10-05 17:50:00
12:10 PM,28.4,24.8,86,30.46,10.0,Calm,Calm,-,N/A,,Partly Cloudy,0,2013-10-05 18:10:00
12:30 PM,32.0,26.6,80,30.45,10.0,North,4.6,-,N/A,,Clear,10,2013-10-05 18:30:00
12:50 PM,32.0,28.4,87,30.45,10.0,NE,4.6,-,N/A,,Clear,50,2013-10-05 18:50:00
1:10 PM,35.6,32.0,87,30.44,10.0,Calm,Calm,-,N/A,,Clear,0,2013-10-05 19:10:00
1:30 PM,37.4,32.0,81,30.44,10.0,West,4.6,-,N/A,,Clear,260,2013-10-05 19:30:00
1:50 PM,39.2,35.6,87,30.43,10.0,SW,9.2,-,N/A,,Clear,220,2013-10-05 19:50:00
2:10 PM,41.0,35.6,81,30.42,10.0,SSW,10.4,16.1,N/A,,Clear,210,2013-10-05 20:10:00
2:30 PM,41.0,37.4,87,30.42,10.0,SW,9.2,16.1,N/A,,Clear,220,2013-10-05 20:30:00
2:50 PM,41.0,37.4,87,30.41,10.0,SSW,9.2,17.3,N/A,,Clear,200,2013-10-05 20:50:00
3:10 PM,42.8,37.4,81,30.42,10.0,SSW,6.9,-,N/A,,Clear,200,2013-10-05 21:10:00
3:30 PM,44.6,39.2,81,30.42,10.0,SW,11.5,-,N/A,,Clear,220,2013-10-05 21:30:00
3:50 PM,44.6,39.2,81,30.41,10.0,SW,11.5,-,N/A,,Clear,220,2013-10-05 21:50:00
4:10 PM,44.6,39.2,81,30.41,10.0,SSW,13.8,-,N/A,,Clear,210,2013-10-05 22:10:00
4:30 PM,44.6,39.2,81,30.41,10.0,SSW,12.7,-,N/A,,Clear,210,2013-10-05 22:30:00
4:50 PM,44.6,39.2,81,30.41,10.0,SSW,12.7,19.6,N/A,,Clear,200,2013-10-05 22:50:00
5:10 PM,44.6,41.0,87,30.41,10.0,SW,10.4,-,N/A,,Clear,220,2013-10-05 23:10:00
5:30 PM,44.6,39.2,81,30.41,10.0,SSW,13.8,-,N/A,,Clear,210,2013-10-05 23:30:00
5:50 PM,44.6,39.2,81,30.41,10.0,SSW,9.2,-,N/A,,Clear,210,2013-10-05 23:50:00
6:10 PM,42.8,39.2,87,30.42,10.0,SW,10.4,-,N/A,,Clear,220,2013-10-06 00:10:00
6:30 PM,41.0,37.4,87,30.41,10.0,WSW,6.9,16.1,N/A,,Clear,240,2013-10-06 00:30:00
6:50 PM,39.2,35.6,87,30.41,10.0,SW,9.2,-,N/A,,Clear,230,2013-10-06 00:50:00
7:10 PM,39.2,35.6,87,30.43,10.0,SW,6.9,-,N/A,,Clear,220,2013-10-06 01:10:00
7:30 PM,37.4,33.8,87,30.44,10.0,SSW,6.9,-,N/A,,Clear,210,2013-10-06 01:30:00
7:50 PM,37.4,32.0,81,30.43,10.0,SW,9.2,-,N/A,,Clear,220,2013-10-06 01:50:00
8:10 PM,35.6,32.0,87,30.44,10.0,WSW,6.9,-,N/A,,Clear,240,2013-10-06 02:10:00
8:30 PM,35.6,32.0,87,30.44,10.0,SW,5.8,-,N/A,,Clear,220,2013-10-06 02:30:00
8:50 PM,35.6,32.0,87,30.45,10.0,SSW,6.9,-,N/A,,Clear,210,2013-10-06 02:50:00
9:10 PM,35.6,32.0,87,30.45,10.0,SSW,6.9,-,N/A,,Clear,210,2013-10-06 03:10:00
9:30 PM,33.8,30.2,87,30.45,10.0,SSW,4.6,-,N/A,,Clear,210,2013-10-06 03:30:00
9:50 PM,32.0,28.4,87,30.46,10.0,Calm,Calm,-,N/A,,Clear,0,2013-10-06 03:50:00
10:10 PM,32.0,26.6,80,30.46,10.0,SSE,3.5,-,N/A,,Clear,160,2013-10-06 04:10:00
10:30 PM,30.2,26.6,86,30.46,10.0,SE,3.5,-,N/A,,Clear,140,2013-10-06 04:30:00
10:50 PM,30.2,26.6,86,30.46,10.0,Calm,Calm,-,N/A,,Clear,0,2013-10-06 04:50:00
11:10 PM,28.4,24.8,86,30.46,10.0,Calm,Calm,-,N/A,,Clear,0,2013-10-06 05:10:00
11:30 PM,26.6,23.0,86,30.46,10.0,Calm,Calm,-,N/A,,Clear,0,2013-10-06 05:30:00
11:50 PM,26.6,23.0,86,30.46,10.0,Calm,Calm,-,N/A,,Clear,0,2013-10-06 05:50:00